User: anonymous   Login
Location: Brunembert
(50.7122°N, 1.8935°E)
Time: 04:07:47
(UTC+00:00)
Language:

Cosmos 1500 Rocket - Orbit

View from above orbital plane
View from above orbital plane
View from above satellite
View from above satellite

Ground track
Ground track

The orbit data is extracted from the following two-line orbital elements,

1 14373U 83099B   21213.44686573  .00000069  00000-0  54054-5 0  9997
2 14373  82.5394 276.6806 0018761 297.5925  72.7253 14.83838357 23144
Epoch (UTC): 01 August 2021 10:43:29
Eccentricity: 0.0018761
inclination: 82.5394°
perigee height: 604 km
apogee height: 630 km
right ascension of ascending node: 276.6806°
argument of perigee: 297.5925°
revolutions per day: 14.83838357
mean anomaly at epoch: 72.7253°
orbit number at epoch: 2314

The dashed part of the orbit path shows where the satellite is in the earth's shadow,  

DLR